Location: Sungai Bunut
(2.6333°N, 113.7333°E)
Time: 10:12:48
(UTC+00:00)

Courier 1B - Pass Details

Date: 05 December 2023
Orbit: 962 x 1209 km, 28.3° (Epoch: 03 March)

Event Time Altitude Azimuth Distance (km) Brightness Sun altitude
Rises 11:33:40 0° 267° (W) 3,780 11.9 -19.0°
Reaches altitude 10° 11:37:09 10° 250° (WSW) 2,874 11.2 -19.8°
Maximum altitude 11:42:02 20° 206° (SSW) 2,302 10.0 -21.0°
Drops below altitude 10° 11:47:07 10° 162° (SSE) 3,006 10.1 -22.1°
Sets 11:50:55 0° 145° (SE) 4,011 10.6 -23.0°
